Date String (YYYY-MM-DD hh:mm:ss) UTC,Instrument flags,Ambient pressure (hPa),Sample flow (lpm),Bypass flow (lpm),Sample temperature (°C),Ambient temperature (°C),ASC tube jacket temperature (°C),LED temperature (°C),Box temperature (°C),Sample RH (%),Span deviation,Mass concentration (μg/m³),Mass concentration (μg/m³),Mass concentration (μg/m³)
DateTimeUTC,F1_M11,P_M11,Q1_M11,Q2_M11,T1_M11,T2_M11,T3_M11,T4_M11,T5_M11,U1_M11,ZSPAN_M11,X2_M11,X0_M11,X1_M11
2022-08-07 20:00:00,,0831.5,5.00,0.00,31.4,28.4,00.0,39.6,32.1,35.2,0001.3,0007.80,0015.80,0006.51
2022-08-07 20:01:00,,0831.5,5.01,0.00,31.5,28.1,00.0,39.5,32.1,35.1,0001.8,0007.85,0016.22,0006.54
2022-08-07 20:02:00,,0831.5,4.99,0.00,31.7,27.6,00.0,39.5,32.1,34.9,0001.3,0007.96,0016.76,0006.57
2022-08-07 20:03:00,,0831.5,5.01,0.00,31.8,27.4,00.0,39.5,32.1,34.8,0001.7,0007.94,0016.94,0006.59
2022-08-07 20:04:00,,0831.5,4.99,0.00,31.7,27.5,00.0,39.5,32.0,34.6,0001.0,0007.98,0016.25,0006.59
2022-08-07 20:05:00,,0831.5,4.99,0.00,31.6,27.6,00.0,39.5,31.9,34.9,0000.0,0007.99,0016.11,0006.61
2022-08-07 20:06:00,,0831.5,5.01,0.00,31.7,27.8,00.0,39.5,32.0,35.0,0001.0,0008.03,0016.42,0006.61
2022-08-07 20:07:00,,0831.5,4.99,0.00,31.8,28.0,00.0,39.6,32.2,34.7,0000.4,0008.05,0015.98,0006.60
2022-08-07 20:08:00,,0831.5,5.01,0.00,31.9,28.2,00.0,39.6,32.2,34.3,0000.0,0008.05,0016.06,0006.59
2022-08-07 20:09:00,,0831.5,5.00,0.00,31.9,28.4,00.0,39.7,32.3,34.4,0000.0,0008.10,0015.87,0006.57
2022-08-07 20:10:00,,0831.4,5.00,0.00,31.9,28.5,00.0,39.7,32.3,34.5,0000.0,0008.02,0015.88,0006.57
2022-08-07 20:11:00,,0831.4,4.99,0.00,31.9,28.2,00.0,39.7,32.2,34.6,0000.0,0007.98,0015.56,0006.57
2022-08-07 20:12:00,,0831.4,5.00,0.00,31.8,27.6,00.0,39.7,32.1,34.8,0000.0,0007.96,0015.14,0006.57
2022-08-07 20:13:00,,0831.3,5.00,0.00,31.7,27.5,00.0,39.7,32.0,34.9,0000.0,0007.95,0014.80,0006.56
2022-08-07 20:14:00,,0831.2,5.01,0.00,31.6,27.5,00.0,39.7,31.9,35.1,0000.0,0007.97,0014.61,0006.56
2022-08-07 20:15:00,,0831.2,5.00,0.00,31.7,27.7,00.0,39.7,32.0,34.9,0000.0,0007.97,0015.46,0006.57
2022-08-07 20:16:00,,0831.2,4.99,0.00,31.7,27.8,00.0,39.7,32.1,35.0,0000.0,0007.93,0015.27,0006.56
2022-08-07 20:17:00,,0831.3,5.02,0.00,31.8,28.0,00.0,39.7,32.2,35.0,0000.0,0007.91,0015.04,0006.55
2022-08-07 20:18:00,,0831.3,5.01,0.00,31.8,28.2,00.0,39.7,32.2,34.6,0000.0,0007.88,0015.35,0006.56
2022-08-07 20:19:00,,0831.2,5.00,0.00,31.9,28.4,00.0,39.8,32.3,34.4,0000.0,0007.79,0015.99,0006.55
2022-08-07 20:20:00,,0831.2,4.99,0.00,31.9,28.1,00.0,39.8,32.2,34.5,0000.0,0007.72,0016.17,0006.55
2022-08-07 20:21:00,,0831.2,5.00,0.00,31.8,27.6,00.0,39.7,32.1,34.9,0000.0,0007.72,0015.46,0006.54
2022-08-07 20:22:00,,0831.2,5.01,0.00,31.7,27.3,00.0,39.7,32.0,34.5,0000.0,0007.75,0016.69,0006.54
2022-08-07 20:23:00,,0831.2,4.99,0.00,31.6,27.4,00.0,39.7,31.9,34.8,0000.0,0007.73,0017.45,0006.53
2022-08-07 20:24:00,,0831.2,5.00,0.00,31.5,27.5,00.0,39.7,31.9,35.2,0000.0,0007.70,0017.46,0006.52
2022-08-07 20:25:00,,0831.2,5.01,0.00,31.6,27.7,00.0,39.7,32.1,34.9,0000.0,0007.70,0017.29,0006.49
2022-08-07 20:26:00,,0831.2,5.00,0.00,31.8,27.9,00.0,39.7,32.2,34.4,0000.0,0007.66,0016.74,0006.47
2022-08-07 20:27:00,,0831.2,5.00,0.00,31.8,28.1,00.0,39.7,32.3,34.5,0000.0,0007.63,0017.89,0006.47
2022-08-07 20:28:00,,0831.2,4.99,0.00,31.9,28.3,00.0,39.7,32.3,34.5,0000.0,0007.62,0017.85,0006.46
2022-08-07 20:29:00,,0831.3,5.02,0.00,31.9,28.3,00.0,39.7,32.3,34.4,0000.0,0007.65,0018.24,0006.46
2022-08-07 20:30:00,,0831.2,4.99,0.00,31.8,27.8,00.0,39.7,32.1,34.1,0000.2,0007.71,0018.58,0006.48
2022-08-07 20:31:00,,0831.2,5.01,0.00,31.8,27.4,00.0,39.7,32.0,34.1,0000.8,0007.76,0018.23,0006.51
2022-08-07 20:32:00,,0831.2,4.99,0.00,31.7,27.4,00.0,39.7,31.9,34.6,0000.9,0007.81,0018.11,0006.54
2022-08-07 20:33:00,,0831.2,4.99,0.00,31.5,27.5,00.0,39.7,31.8,34.9,0000.7,0007.79,0016.96,0006.54
2022-08-07 20:34:00,,0831.1,5.01,0.00,31.4,27.6,00.0,39.7,31.9,35.3,0001.2,0007.84,0016.42,0006.55
2022-08-07 20:35:00,,0831.1,5.00,0.00,31.6,27.8,00.0,39.7,32.1,34.8,0001.2,0007.86,0017.77,0006.54
2022-08-07 20:36:00,,0831.1,5.00,0.00,31.8,28.1,00.0,39.7,32.3,34.1,0000.2,0007.79,0018.56,0006.55
2022-08-07 20:37:00,,0831.1,5.01,0.00,31.9,28.2,00.0,39.7,32.3,33.7,0000.0,0007.77,0018.78,0006.55
2022-08-07 20:38:00,,0831.1,4.99,0.00,32.0,28.4,00.0,39.7,32.4,34.2,0000.0,0007.78,0017.94,0006.55
2022-08-07 20:39:00,,0831.1,4.99,0.00,32.0,28.5,00.0,39.8,32.4,34.9,0000.4,0007.75,0017.81,0006.56
2022-08-07 20:40:00,,0831.2,5.00,0.00,32.0,28.1,00.0,39.8,32.3,34.5,0002.3,0007.74,0017.79,0006.58
2022-08-07 20:41:00,,0831.1,5.00,0.00,32.0,27.6,00.0,39.8,32.2,34.0,0001.5,0007.74,0016.53,0006.60
2022-08-07 20:42:00,,0831.0,5.01,0.00,31.9,27.5,00.0,39.8,32.1,33.8,0000.0,0007.77,0016.27,0006.61
2022-08-07 20:43:00,,0831.0,5.00,0.00,31.8,27.6,00.0,39.8,32.0,34.4,0000.0,0007.75,0016.24,0006.59
2022-08-07 20:44:00,,0831.0,4.99,0.00,31.7,27.8,00.0,39.8,32.0,34.6,0000.0,0007.75,0016.41,0006.60
2022-08-07 20:45:00,,0831.0,5.01,0.00,31.6,28.0,00.0,39.8,32.1,34.7,0000.0,0007.71,0016.44,0006.61
2022-08-07 20:46:00,,0831.0,4.99,0.00,31.6,28.1,00.0,39.8,32.1,34.7,0000.0,0007.63,0016.24,0006.62
2022-08-07 20:47:00,,0831.0,5.00,0.00,31.6,28.3,00.0,39.8,32.2,34.7,0000.0,0007.65,0015.19,0006.65
2022-08-07 20:48:00,,0831.0,4.99,0.00,31.5,28.2,00.0,39.8,32.2,34.7,0000.0,0007.75,0014.72,0006.69
2022-08-07 20:49:00,,0831.0,5.01,0.00,31.5,27.7,00.0,39.7,32.1,35.2,0000.0,0007.85,0015.01,0006.74
2022-08-07 20:50:00,,0831.0,4.99,0.00,31.5,27.4,00.0,39.7,32.1,35.0,0000.0,0007.89,0014.70,0006.78
2022-08-07 20:51:00,,0831.0,5.00,0.00,31.6,27.4,00.0,39.7,32.1,35.2,0000.0,0007.94,0014.51,0006.79
2022-08-07 20:52:00,,0830.9,4.99,0.00,31.6,27.5,00.0,39.6,32.1,34.9,0000.0,0007.91,0014.55,0006.77
2022-08-07 20:53:00,,0830.9,5.01,0.00,31.8,27.7,00.0,39.6,32.1,34.6,0000.0,0007.86,0014.86,0006.76
2022-08-07 20:54:00,,0830.9,5.00,0.00,31.8,27.9,00.0,39.7,32.2,33.8,0000.0,0007.84,0015.35,0006.76
2022-08-07 20:55:00,,0830.9,5.01,0.00,31.8,28.1,00.0,39.7,32.2,33.5,0000.0,0007.89,0015.81,0006.77
2022-08-07 20:56:00,,0830.9,5.00,0.00,31.8,28.3,00.0,39.7,32.2,33.5,0000.0,0007.94,0016.03,0006.77
2022-08-07 20:57:00,,0830.9,4.99,0.00,31.8,28.4,00.0,39.8,32.3,33.6,0000.0,0007.96,0015.01,0006.78
2022-08-07 20:58:00,,0830.8,5.01,0.00,31.8,28.1,00.0,39.8,32.2,33.2,0000.0,0007.97,0015.03,0006.77
2022-08-07 20:59:00,,0830.8,5.01,0.00,31.7,27.6,00.0,39.7,32.1,33.3,0000.0,0007.91,0014.62,0006.76
